Location: Hannover
(52.3723°N, 9.7339°E)
Time: 10:42:18
(UTC+01:00)

ISS - Pass Details

Date: 10 January 2018
Orbit: 402 x 406 km, 51.6° (Epoch: 16 January)

Event Time Altitude Azimuth Distance (km) Brightness Sun altitude
Exits shadow 06:32:38 36° 240° (WSW) 658 -3.2 -16.6°
Maximum altitude 06:33:22 44° 202° (SSW) 574 -3.2 -16.5°
Drops below altitude 10° 06:36:31 10° 128° (SE) 1,464 0.1 -16.0°
Sets 06:38:39 0° 122° (ESE) 2,322 1.5 -15.7°
